Weather in Krasnopol'e

Russia / Voronezh Oblast     50°37′24″N   41°17′41″E
temp.,
°C
wind,
m/s
gust,
m/s
humid.,
%
clouds,
%
prec.,
mm/h
press.,
hPa
HPBL,
m
5 august, thu
thu500:00+18ne125878 0.0 101711
03:00+18nne116075 0.0 101711
06:00+18nnw11635 0.0 101811
09:00+24ene004361 0.0 1018570
12:00+28w22315 0.0 10172320
15:00+29wsw222779 0.0 10162656
18:00+28ssw2230100 0.0 10151147
21:00+22ene323996 0.0 101521
6 august, fri
fri600:00+20e410485 0.0 1015157
03:00+19ese385198 0.0 1015139
06:00+20ese394918 0.0 1015192
09:00+28se68296 0.0 1014767
12:00+32sse56247 0.0 10132022
15:00+33sse552494 0.0 10112553
18:00+33se452426 0.0 10101973
21:00+27ese613285 0.0 1011385
7 august, sat
sat700:00+25se615275 0.0 1011347
03:00+22ese61535100 0.0 1011294
06:00+22se51435100 0.0 1012387
09:00+29se7102316 0.0 1012793
12:00+34se7817100 0.0 10111976
15:00+34se6717100 0.0 10102210
18:00+34e6818100 0.0 1009850
21:00+26ese41226100 0.0 1010194
8 august, sun
sun800:00+25e4112484 0.0 1010169
03:00+24se2225100 0.0 101122
06:00+25ene3624100 0.0 1011123
09:00+27ene3326100 0.0 1011224
12:00+31se3622100 0.0 10121074
15:00+31nne5824100 0.0 1011466
18:00+28nne51029100 0.0 1012278
21:00+26nne81537100 0.0 1012560
9 august, mon
mon900:00+27nne7153497 0.0 1011585
03:00+26nne51235100 0.0 1011346
06:00+26nne5133490 0.0 1011460
09:00+29nne793471 0.0 1011749
12:00+33n7726100 0.0 10102041
15:00+34nnw772360 0.0 10102983
18:00+32n66285 0.0 10102364
21:00+25n38445 0.0 1011121